owner,sensor,date,latitude,longitude,vertical_datum,sea_water_practical_salinity,qcFlag 
WAVCIS,ioos:station:WAVCIS:CSI16:2,2010-10-01T00:00:00Z,29.4012,-89.0355,1.0,27.875,11111222 
WAVCIS,ioos:station:WAVCIS:CSI16:2,2010-10-01T00:15:00Z,29.4012,-89.0355,1.0,27.9,11111222 
WAVCIS,ioos:station:WAVCIS:CSI16:2,2010-10-01T00:30:00Z,29.4012,-89.0355,1.0,27.909,11111222 
WAVCIS,ioos:station:WAVCIS:CSI16:2,2010-10-01T00:45:00Z,29.4012,-89.0355,1.0,27.91,11111222 
WAVCIS,ioos:station:WAVCIS:CSI16:2,2010-10-01T01:00:00Z,29.4012,-89.0355,1.0,27.924,11111222 
WAVCIS,ioos:station:WAVCIS:CSI16:2,2010-10-01T01:15:00Z,29.4012,-89.0355,1.0,27.949,11111222 
WAVCIS,ioos:station:WAVCIS:CSI16:2,2010-10-01T01:30:00Z,29.4012,-89.0355,1.0,27.979,11111222 
WAVCIS,ioos:station:WAVCIS:CSI16:2,2010-10-01T01:45:00Z,29.4012,-89.0355,1.0,28.004,11111222 
WAVCIS,ioos:station:WAVCIS:CSI16:2,2010-10-01T02:00:00Z,29.4012,-89.0355,1.0,28.064,11111222 
WAVCIS,ioos:station:WAVCIS:CSI16:2,2010-10-01T02:15:00Z,29.4012,-89.0355,1.0,28.077,11111222 
WAVCIS,ioos:station:WAVCIS:CSI16:2,2010-10-01T02:30:00Z,29.4012,-89.0355,1.0,28.124,11111222 
WAVCIS,ioos:station:WAVCIS:CSI16:2,2010-10-01T02:45:00Z,29.4012,-89.0355,1.0,28.175,11111222 
WAVCIS,ioos:station:WAVCIS:CSI16:2,2010-10-01T03:00:00Z,29.4012,-89.0355,1.0,28.251,11111222 
WAVCIS,ioos:station:WAVCIS:CSI16:2,2010-10-01T03:15:00Z,29.4012,-89.0355,1.0,28.29,11111222 
WAVCIS,ioos:station:WAVCIS:CSI16:2,2010-10-01T03:30:00Z,29.4012,-89.0355,1.0,28.312,11111222 
WAVCIS,ioos:station:WAVCIS:CSI16:2,2010-10-01T03:45:00Z,29.4012,-89.0355,1.0,28.37,11111222 
WAVCIS,ioos:station:WAVCIS:CSI16:2,2010-10-01T04:00:00Z,29.4012,-89.0355,1.0,28.397,11111222 
WAVCIS,ioos:station:WAVCIS:CSI16:2,2010-10-01T04:15:00Z,29.4012,-89.0355,1.0,28.428,11111222 
WAVCIS,ioos:station:WAVCIS:CSI16:2,2010-10-01T04:30:00Z,29.4012,-89.0355,1.0,28.44,11111222 
WAVCIS,ioos:station:WAVCIS:CSI16:2,2010-10-01T04:45:00Z,29.4012,-89.0355,1.0,28.46,11111222 
WAVCIS,ioos:station:WAVCIS:CSI16:2,2010-10-01T05:00:00Z,29.4012,-89.0355,1.0,28.469,11111222 
WAVCIS,ioos:station:WAVCIS:CSI16:2,2010-10-01T05:15:00Z,29.4012,-89.0355,1.0,28.462,11111222 
WAVCIS,ioos:station:WAVCIS:CSI16:2,2010-10-01T05:30:00Z,29.4012,-89.0355,1.0,28.475,11111222 
WAVCIS,ioos:station:WAVCIS:CSI16:2,2010-10-01T05:45:00Z,29.4012,-89.0355,1.0,28.483,11111222 
WAVCIS,ioos:station:WAVCIS:CSI16:2,2010-10-01T06:00:00Z,29.4012,-89.0355,1.0,28.494,11111222 
WAVCIS,ioos:station:WAVCIS:CSI16:2,2010-10-01T06:15:00Z,29.4012,-89.0355,1.0,28.504,11111222 
WAVCIS,ioos:station:WAVCIS:CSI16:2,2010-10-01T06:30:00Z,29.4012,-89.0355,1.0,28.519,11111222 
WAVCIS,ioos:station:WAVCIS:CSI16:2,2010-10-01T06:45:00Z,29.4012,-89.0355,1.0,28.536,11111222 
WAVCIS,ioos:station:WAVCIS:CSI16:2,2010-10-01T07:00:00Z,29.4012,-89.0355,1.0,28.557,11111222 
WAVCIS,ioos:station:WAVCIS:CSI16:2,2010-10-01T07:15:00Z,29.4012,-89.0355,1.0,28.515,11111222 
WAVCIS,ioos:station:WAVCIS:CSI16:2,2010-10-01T07:30:00Z,29.4012,-89.0355,1.0,28.551,11111222 
WAVCIS,ioos:station:WAVCIS:CSI16:2,2010-10-01T07:45:00Z,29.4012,-89.0355,1.0,28.565,11111222 
WAVCIS,ioos:station:WAVCIS:CSI16:2,2010-10-01T08:00:00Z,29.4012,-89.0355,1.0,28.583,11111222 
WAVCIS,ioos:station:WAVCIS:CSI16:2,2010-10-01T08:15:00Z,29.4012,-89.0355,1.0,28.594,11111222 
WAVCIS,ioos:station:WAVCIS:CSI16:2,2010-10-01T08:30:00Z,29.4012,-89.0355,1.0,28.59,11111222 
WAVCIS,ioos:station:WAVCIS:CSI16:2,2010-10-01T08:45:00Z,29.4012,-89.0355,1.0,28.604,11111222 
WAVCIS,ioos:station:WAVCIS:CSI16:2,2010-10-01T09:00:00Z,29.4012,-89.0355,1.0,28.608,11111222 
WAVCIS,ioos:station:WAVCIS:CSI16:2,2010-10-01T09:15:00Z,29.4012,-89.0355,1.0,28.617,11111222 
WAVCIS,ioos:station:WAVCIS:CSI16:2,2010-10-01T09:30:00Z,29.4012,-89.0355,1.0,28.622,11111222 
WAVCIS,ioos:station:WAVCIS:CSI16:2,2010-10-01T09:45:00Z,29.4012,-89.0355,1.0,28.626,11111222 
WAVCIS,ioos:station:WAVCIS:CSI16:2,2010-10-01T10:00:00Z,29.4012,-89.0355,1.0,28.6,11111222 
WAVCIS,ioos:station:WAVCIS:CSI16:2,2010-10-01T10:15:00Z,29.4012,-89.0355,1.0,28.614,11111222 
WAVCIS,ioos:station:WAVCIS:CSI16:2,2010-10-01T10:30:00Z,29.4012,-89.0355,1.0,28.624,11111222 
WAVCIS,ioos:station:WAVCIS:CSI16:2,2010-10-01T10:45:00Z,29.4012,-89.0355,1.0,28.623,11111222 
WAVCIS,ioos:station:WAVCIS:CSI16:2,2010-10-01T11:00:00Z,29.4012,-89.0355,1.0,28.627,11111222 
WAVCIS,ioos:station:WAVCIS:CSI16:2,2010-10-01T11:15:00Z,29.4012,-89.0355,1.0,28.631,11111222 
WAVCIS,ioos:station:WAVCIS:CSI16:2,2010-10-01T11:30:00Z,29.4012,-89.0355,1.0,28.645,11111222 
WAVCIS,ioos:station:WAVCIS:CSI16:2,2010-10-01T11:45:00Z,29.4012,-89.0355,1.0,28.658,11111222 
WAVCIS,ioos:station:WAVCIS:CSI16:2,2010-10-01T12:00:00Z,29.4012,-89.0355,1.0,28.662,11111222 
WAVCIS,ioos:station:WAVCIS:CSI16:2,2010-10-01T12:15:00Z,29.4012,-89.0355,1.0,28.649,11111222 
WAVCIS,ioos:station:WAVCIS:CSI16:2,2010-10-01T12:30:00Z,29.4012,-89.0355,1.0,28.619,11111222 
WAVCIS,ioos:station:WAVCIS:CSI16:2,2010-10-01T12:45:00Z,29.4012,-89.0355,1.0,28.584,11111222 
WAVCIS,ioos:station:WAVCIS:CSI16:2,2010-10-01T13:00:00Z,29.4012,-89.0355,1.0,28.562,11111222 
WAVCIS,ioos:station:WAVCIS:CSI16:2,2010-10-01T13:15:00Z,29.4012,-89.0355,1.0,28.529,11111222 
WAVCIS,ioos:station:WAVCIS:CSI16:2,2010-10-01T13:30:00Z,29.4012,-89.0355,1.0,28.471,11111222 
WAVCIS,ioos:station:WAVCIS:CSI16:2,2010-10-01T13:45:00Z,29.4012,-89.0355,1.0,28.436,11111222 
WAVCIS,ioos:station:WAVCIS:CSI16:2,2010-10-01T14:00:00Z,29.4012,-89.0355,1.0,28.375,11111222 
WAVCIS,ioos:station:WAVCIS:CSI16:2,2010-10-01T14:15:00Z,29.4012,-89.0355,1.0,28.284,11111222 
WAVCIS,ioos:station:WAVCIS:CSI16:2,2010-10-01T14:30:00Z,29.4012,-89.0355,1.0,28.234,11111222 
WAVCIS,ioos:station:WAVCIS:CSI16:2,2010-10-01T14:45:00Z,29.4012,-89.0355,1.0,28.132,11111222 
WAVCIS,ioos:station:WAVCIS:CSI16:2,2010-10-01T15:00:00Z,29.4012,-89.0355,1.0,28.073,11111222 
WAVCIS,ioos:station:WAVCIS:CSI16:2,2010-10-01T15:15:00Z,29.4012,-89.0355,1.0,28.019,11111222 
WAVCIS,ioos:station:WAVCIS:CSI16:2,2010-10-01T15:30:00Z,29.4012,-89.0355,1.0,27.985,11111222 
WAVCIS,ioos:station:WAVCIS:CSI16:2,2010-10-01T15:45:00Z,29.4012,-89.0355,1.0,27.902,11111222 
WAVCIS,ioos:station:WAVCIS:CSI16:2,2010-10-01T16:00:00Z,29.4012,-89.0355,1.0,27.824,11111222 
WAVCIS,ioos:station:WAVCIS:CSI16:2,2010-10-01T16:15:00Z,29.4012,-89.0355,1.0,27.766,11111222 
WAVCIS,ioos:station:WAVCIS:CSI16:2,2010-10-01T16:30:00Z,29.4012,-89.0355,1.0,27.742,11111222 
WAVCIS,ioos:station:WAVCIS:CSI16:2,2010-10-01T16:45:00Z,29.4012,-89.0355,1.0,27.714,11111222 
WAVCIS,ioos:station:WAVCIS:CSI16:2,2010-10-01T17:00:00Z,29.4012,-89.0355,1.0,27.703,11111222 
WAVCIS,ioos:station:WAVCIS:CSI16:2,2010-10-01T17:15:00Z,29.4012,-89.0355,1.0,27.704,11111222 
WAVCIS,ioos:station:WAVCIS:CSI16:2,2010-10-01T17:30:00Z,29.4012,-89.0355,1.0,27.7,11111222 
WAVCIS,ioos:station:WAVCIS:CSI16:2,2010-10-01T17:45:00Z,29.4012,-89.0355,1.0,27.684,11111222 
WAVCIS,ioos:station:WAVCIS:CSI16:2,2010-10-01T18:00:00Z,29.4012,-89.0355,1.0,27.667,11111222 
WAVCIS,ioos:station:WAVCIS:CSI16:2,2010-10-01T18:15:00Z,29.4012,-89.0355,1.0,27.643,11111222 
WAVCIS,ioos:station:WAVCIS:CSI16:2,2010-10-01T18:30:00Z,29.4012,-89.0355,1.0,27.627,11111222 
WAVCIS,ioos:station:WAVCIS:CSI16:2,2010-10-01T18:45:00Z,29.4012,-89.0355,1.0,27.59,11111222 
WAVCIS,ioos:station:WAVCIS:CSI16:2,2010-10-01T19:00:00Z,29.4012,-89.0355,1.0,27.489,11111222 
WAVCIS,ioos:station:WAVCIS:CSI16:2,2010-10-01T19:15:00Z,29.4012,-89.0355,1.0,27.438,11111222 
WAVCIS,ioos:station:WAVCIS:CSI16:2,2010-10-01T19:30:00Z,29.4012,-89.0355,1.0,27.34,11111222 
WAVCIS,ioos:station:WAVCIS:CSI16:2,2010-10-01T19:45:00Z,29.4012,-89.0355,1.0,27.451,11111222 
WAVCIS,ioos:station:WAVCIS:CSI16:2,2010-10-01T20:00:00Z,29.4012,-89.0355,1.0,27.414,11111222 
WAVCIS,ioos:station:WAVCIS:CSI16:2,2010-10-01T20:15:00Z,29.4012,-89.0355,1.0,27.466,11111222 
WAVCIS,ioos:station:WAVCIS:CSI16:2,2010-10-01T20:30:00Z,29.4012,-89.0355,1.0,27.476,11111222 
WAVCIS,ioos:station:WAVCIS:CSI16:2,2010-10-01T20:45:00Z,29.4012,-89.0355,1.0,27.426,11111222 
WAVCIS,ioos:station:WAVCIS:CSI16:2,2010-10-01T21:00:00Z,29.4012,-89.0355,1.0,27.406,11111222 
WAVCIS,ioos:station:WAVCIS:CSI16:2,2010-10-01T21:15:00Z,29.4012,-89.0355,1.0,27.416,11111222 
WAVCIS,ioos:station:WAVCIS:CSI16:2,2010-10-01T21:30:00Z,29.4012,-89.0355,1.0,27.394,11111222 
WAVCIS,ioos:station:WAVCIS:CSI16:2,2010-10-01T21:45:00Z,29.4012,-89.0355,1.0,27.395,11111222 
WAVCIS,ioos:station:WAVCIS:CSI16:2,2010-10-01T22:00:00Z,29.4012,-89.0355,1.0,27.404,11111222 
WAVCIS,ioos:station:WAVCIS:CSI16:2,2010-10-01T22:15:00Z,29.4012,-89.0355,1.0,27.34,11111222 
WAVCIS,ioos:station:WAVCIS:CSI16:2,2010-10-01T22:30:00Z,29.4012,-89.0355,1.0,27.34,11111222 
WAVCIS,ioos:station:WAVCIS:CSI16:2,2010-10-01T22:45:00Z,29.4012,-89.0355,1.0,27.485,11111222 
WAVCIS,ioos:station:WAVCIS:CSI16:2,2010-10-01T23:00:00Z,29.4012,-89.0355,1.0,27.454,11111222 
WAVCIS,ioos:station:WAVCIS:CSI16:2,2010-10-01T23:15:00Z,29.4012,-89.0355,1.0,27.458,11111222 
WAVCIS,ioos:station:WAVCIS:CSI16:2,2010-10-01T23:30:00Z,29.4012,-89.0355,1.0,27.389,11111222 
WAVCIS,ioos:station:WAVCIS:CSI16:2,2010-10-01T23:45:00Z,29.4012,-89.0355,1.0,27.453,11111222 
WAVCIS,ioos:station:WAVCIS:CSI16:2,2010-10-02T00:00:00Z,29.4012,-89.0355,1.0,27.427,11111222 
WAVCIS,ioos:station:WAVCIS:CSI16:2,2010-10-02T00:15:00Z,29.4012,-89.0355,1.0,27.592,11111222 
WAVCIS,ioos:station:WAVCIS:CSI16:2,2010-10-02T00:30:00Z,29.4012,-89.0355,1.0,27.613,11111222 
WAVCIS,ioos:station:WAVCIS:CSI16:2,2010-10-02T00:45:00Z,29.4012,-89.0355,1.0,27.621,11111222 
WAVCIS,ioos:station:WAVCIS:CSI16:2,2010-10-02T01:00:00Z,29.4012,-89.0355,1.0,27.67,11111222 
WAVCIS,ioos:station:WAVCIS:CSI16:2,2010-10-02T01:15:00Z,29.4012,-89.0355,1.0,27.738,11111222 
WAVCIS,ioos:station:WAVCIS:CSI16:2,2010-10-02T01:30:00Z,29.4012,-89.0355,1.0,27.703,11111222 
WAVCIS,ioos:station:WAVCIS:CSI16:2,2010-10-02T01:45:00Z,29.4012,-89.0355,1.0,27.757,11111222 
WAVCIS,ioos:station:WAVCIS:CSI16:2,2010-10-02T02:00:00Z,29.4012,-89.0355,1.0,27.84,11111222 
WAVCIS,ioos:station:WAVCIS:CSI16:2,2010-10-02T02:15:00Z,29.4012,-89.0355,1.0,26.872,11111222 
WAVCIS,ioos:station:WAVCIS:CSI16:2,2010-10-02T02:30:00Z,29.4012,-89.0355,1.0,27.922,11111222 
WAVCIS,ioos:station:WAVCIS:CSI16:2,2010-10-02T02:45:00Z,29.4012,-89.0355,1.0,27.976,11111222 
WAVCIS,ioos:station:WAVCIS:CSI16:2,2010-10-02T03:00:00Z,29.4012,-89.0355,1.0,28.02,11111222 
WAVCIS,ioos:station:WAVCIS:CSI16:2,2010-10-02T03:15:00Z,29.4012,-89.0355,1.0,28.148,11111222 
WAVCIS,ioos:station:WAVCIS:CSI16:2,2010-10-02T03:30:00Z,29.4012,-89.0355,1.0,28.206,11111222 
WAVCIS,ioos:station:WAVCIS:CSI16:2,2010-10-02T03:45:00Z,29.4012,-89.0355,1.0,28.241,11111222 
WAVCIS,ioos:station:WAVCIS:CSI16:2,2010-10-02T04:00:00Z,29.4012,-89.0355,1.0,28.301,11111222 
WAVCIS,ioos:station:WAVCIS:CSI16:2,2010-10-02T04:15:00Z,29.4012,-89.0355,1.0,28.331,11111222 
WAVCIS,ioos:station:WAVCIS:CSI16:2,2010-10-02T04:30:00Z,29.4012,-89.0355,1.0,28.319,11111222 
WAVCIS,ioos:station:WAVCIS:CSI16:2,2010-10-02T04:45:00Z,29.4012,-89.0355,1.0,28.323,11111222 
WAVCIS,ioos:station:WAVCIS:CSI16:2,2010-10-02T05:00:00Z,29.4012,-89.0355,1.0,28.334,11111222 
WAVCIS,ioos:station:WAVCIS:CSI16:2,2010-10-02T05:15:00Z,29.4012,-89.0355,1.0,28.324,11111222 
WAVCIS,ioos:station:WAVCIS:CSI16:2,2010-10-02T05:30:00Z,29.4012,-89.0355,1.0,28.334,11111222 
WAVCIS,ioos:station:WAVCIS:CSI16:2,2010-10-02T05:45:00Z,29.4012,-89.0355,1.0,28.34,11111222 
WAVCIS,ioos:station:WAVCIS:CSI16:2,2010-10-02T06:00:00Z,29.4012,-89.0355,1.0,28.319,11111222 
WAVCIS,ioos:station:WAVCIS:CSI16:2,2010-10-02T06:15:00Z,29.4012,-89.0355,1.0,28.341,11111222 
WAVCIS,ioos:station:WAVCIS:CSI16:2,2010-10-02T06:30:00Z,29.4012,-89.0355,1.0,28.343,11111222 
WAVCIS,ioos:station:WAVCIS:CSI16:2,2010-10-02T06:45:00Z,29.4012,-89.0355,1.0,28.361,11111222 
WAVCIS,ioos:station:WAVCIS:CSI16:2,2010-10-02T07:00:00Z,29.4012,-89.0355,1.0,28.38,11111222 
WAVCIS,ioos:station:WAVCIS:CSI16:2,2010-10-02T07:15:00Z,29.4012,-89.0355,1.0,28.389,11111222 
WAVCIS,ioos:station:WAVCIS:CSI16:2,2010-10-02T07:30:00Z,29.4012,-89.0355,1.0,28.419,11111222 
WAVCIS,ioos:station:WAVCIS:CSI16:2,2010-10-02T07:45:00Z,29.4012,-89.0355,1.0,28.431,11111222 
WAVCIS,ioos:station:WAVCIS:CSI16:2,2010-10-02T08:00:00Z,29.4012,-89.0355,1.0,28.445,11111222 
WAVCIS,ioos:station:WAVCIS:CSI16:2,2010-10-02T08:15:00Z,29.4012,-89.0355,1.0,28.426,11111222 
WAVCIS,ioos:station:WAVCIS:CSI16:2,2010-10-02T08:30:00Z,29.4012,-89.0355,1.0,28.438,11111222 
WAVCIS,ioos:station:WAVCIS:CSI16:2,2010-10-02T08:45:00Z,29.4012,-89.0355,1.0,28.446,11111222 
WAVCIS,ioos:station:WAVCIS:CSI16:2,2010-10-02T09:00:00Z,29.4012,-89.0355,1.0,28.449,11111222 
WAVCIS,ioos:station:WAVCIS:CSI16:2,2010-10-02T09:15:00Z,29.4012,-89.0355,1.0,28.462,11111222 
WAVCIS,ioos:station:WAVCIS:CSI16:2,2010-10-02T09:30:00Z,29.4012,-89.0355,1.0,28.473,11111222 
WAVCIS,ioos:station:WAVCIS:CSI16:2,2010-10-02T09:45:00Z,29.4012,-89.0355,1.0,28.477,11111222 
WAVCIS,ioos:station:WAVCIS:CSI16:2,2010-10-02T10:00:00Z,29.4012,-89.0355,1.0,28.483,11111222 
WAVCIS,ioos:station:WAVCIS:CSI16:2,2010-10-02T10:15:00Z,29.4012,-89.0355,1.0,28.489,11111222 
WAVCIS,ioos:station:WAVCIS:CSI16:2,2010-10-02T10:30:00Z,29.4012,-89.0355,1.0,28.489,11111222 
WAVCIS,ioos:station:WAVCIS:CSI16:2,2010-10-02T10:45:00Z,29.4012,-89.0355,1.0,28.501,11111222 
WAVCIS,ioos:station:WAVCIS:CSI16:2,2010-10-02T11:00:00Z,29.4012,-89.0355,1.0,28.518,11111222 
WAVCIS,ioos:station:WAVCIS:CSI16:2,2010-10-02T11:15:00Z,29.4012,-89.0355,1.0,28.535,11111222 
WAVCIS,ioos:station:WAVCIS:CSI16:2,2010-10-02T11:30:00Z,29.4012,-89.0355,1.0,28.531,11111222 
WAVCIS,ioos:station:WAVCIS:CSI16:2,2010-10-02T11:45:00Z,29.4012,-89.0355,1.0,28.524,11111222 
WAVCIS,ioos:station:WAVCIS:CSI16:2,2010-10-02T12:00:00Z,29.4012,-89.0355,1.0,28.51,11111222 
WAVCIS,ioos:station:WAVCIS:CSI16:2,2010-10-02T12:15:00Z,29.4012,-89.0355,1.0,28.497,11111222 
WAVCIS,ioos:station:WAVCIS:CSI16:2,2010-10-02T12:30:00Z,29.4012,-89.0355,1.0,28.501,11111222 
WAVCIS,ioos:station:WAVCIS:CSI16:2,2010-10-02T12:45:00Z,29.4012,-89.0355,1.0,28.493,11111222 
WAVCIS,ioos:station:WAVCIS:CSI16:2,2010-10-02T13:00:00Z,29.4012,-89.0355,1.0,28.485,11111222 
WAVCIS,ioos:station:WAVCIS:CSI16:2,2010-10-02T13:15:00Z,29.4012,-89.0355,1.0,28.454,11111222 
WAVCIS,ioos:station:WAVCIS:CSI16:2,2010-10-02T13:30:00Z,29.4012,-89.0355,1.0,28.44,11111222 
WAVCIS,ioos:station:WAVCIS:CSI16:2,2010-10-02T13:45:00Z,29.4012,-89.0355,1.0,28.417,11111222 
WAVCIS,ioos:station:WAVCIS:CSI16:2,2010-10-02T14:00:00Z,29.4012,-89.0355,1.0,28.396,11111222 
WAVCIS,ioos:station:WAVCIS:CSI16:2,2010-10-02T14:15:00Z,29.4012,-89.0355,1.0,28.37,11111222 
WAVCIS,ioos:station:WAVCIS:CSI16:2,2010-10-02T14:30:00Z,29.4012,-89.0355,1.0,28.385,11111222 
WAVCIS,ioos:station:WAVCIS:CSI16:2,2010-10-02T14:45:00Z,29.4012,-89.0355,1.0,28.369,11111222 
WAVCIS,ioos:station:WAVCIS:CSI16:2,2010-10-02T15:00:00Z,29.4012,-89.0355,1.0,28.36,11111222 
WAVCIS,ioos:station:WAVCIS:CSI16:2,2010-10-02T15:15:00Z,29.4012,-89.0355,1.0,28.318,11111222 
WAVCIS,ioos:station:WAVCIS:CSI16:2,2010-10-02T15:30:00Z,29.4012,-89.0355,1.0,28.155,11111222 
WAVCIS,ioos:station:WAVCIS:CSI16:2,2010-10-02T15:45:00Z,29.4012,-89.0355,1.0,27.995,11111222 
WAVCIS,ioos:station:WAVCIS:CSI16:2,2010-10-02T16:00:00Z,29.4012,-89.0355,1.0,27.979,11111222 
WAVCIS,ioos:station:WAVCIS:CSI16:2,2010-10-02T16:15:00Z,29.4012,-89.0355,1.0,27.918,11111222 
WAVCIS,ioos:station:WAVCIS:CSI16:2,2010-10-02T16:30:00Z,29.4012,-89.0355,1.0,27.875,11111222 
WAVCIS,ioos:station:WAVCIS:CSI16:2,2010-10-02T16:45:00Z,29.4012,-89.0355,1.0,27.747,11111222 
WAVCIS,ioos:station:WAVCIS:CSI16:2,2010-10-02T17:00:00Z,29.4012,-89.0355,1.0,27.707,11111222 
WAVCIS,ioos:station:WAVCIS:CSI16:2,2010-10-02T17:15:00Z,29.4012,-89.0355,1.0,27.697,11111222 
WAVCIS,ioos:station:WAVCIS:CSI16:2,2010-10-02T17:30:00Z,29.4012,-89.0355,1.0,27.707,11111222 
WAVCIS,ioos:station:WAVCIS:CSI16:2,2010-10-02T17:45:00Z,29.4012,-89.0355,1.0,27.73,11111222 
WAVCIS,ioos:station:WAVCIS:CSI16:2,2010-10-02T18:00:00Z,29.4012,-89.0355,1.0,27.74,11111222 
WAVCIS,ioos:station:WAVCIS:CSI16:2,2010-10-02T18:15:00Z,29.4012,-89.0355,1.0,27.748,11111222 
WAVCIS,ioos:station:WAVCIS:CSI16:2,2010-10-02T18:30:00Z,29.4012,-89.0355,1.0,27.748,11111222 
WAVCIS,ioos:station:WAVCIS:CSI16:2,2010-10-02T18:45:00Z,29.4012,-89.0355,1.0,27.742,11111222 
WAVCIS,ioos:station:WAVCIS:CSI16:2,2010-10-02T19:00:00Z,29.4012,-89.0355,1.0,27.702,11111222 
WAVCIS,ioos:station:WAVCIS:CSI16:2,2010-10-02T19:15:00Z,29.4012,-89.0355,1.0,27.668,11111222 
WAVCIS,ioos:station:WAVCIS:CSI16:2,2010-10-02T19:30:00Z,29.4012,-89.0355,1.0,27.642,11111222 
WAVCIS,ioos:station:WAVCIS:CSI16:2,2010-10-02T19:45:00Z,29.4012,-89.0355,1.0,27.615,11111222 
WAVCIS,ioos:station:WAVCIS:CSI16:2,2010-10-02T20:00:00Z,29.4012,-89.0355,1.0,27.593,11111222 
WAVCIS,ioos:station:WAVCIS:CSI16:2,2010-10-02T20:15:00Z,29.4012,-89.0355,1.0,27.461,11111222 
WAVCIS,ioos:station:WAVCIS:CSI16:2,2010-10-02T20:30:00Z,29.4012,-89.0355,1.0,27.458,11111222 
WAVCIS,ioos:station:WAVCIS:CSI16:2,2010-10-02T20:45:00Z,29.4012,-89.0355,1.0,27.448,11111222 
WAVCIS,ioos:station:WAVCIS:CSI16:2,2010-10-02T21:00:00Z,29.4012,-89.0355,1.0,27.44,11111222 
WAVCIS,ioos:station:WAVCIS:CSI16:2,2010-10-02T21:15:00Z,29.4012,-89.0355,1.0,27.436,11111222 
WAVCIS,ioos:station:WAVCIS:CSI16:2,2010-10-02T21:30:00Z,29.4012,-89.0355,1.0,27.435,11111222 
WAVCIS,ioos:station:WAVCIS:CSI16:2,2010-10-02T21:45:00Z,29.4012,-89.0355,1.0,27.436,11111222 
WAVCIS,ioos:station:WAVCIS:CSI16:2,2010-10-02T22:00:00Z,29.4012,-89.0355,1.0,27.429,11111222 
WAVCIS,ioos:station:WAVCIS:CSI16:2,2010-10-02T22:15:00Z,29.4012,-89.0355,1.0,27.433,11111222 
WAVCIS,ioos:station:WAVCIS:CSI16:2,2010-10-02T22:30:00Z,29.4012,-89.0355,1.0,27.448,11111222 
WAVCIS,ioos:station:WAVCIS:CSI16:2,2010-10-02T22:45:00Z,29.4012,-89.0355,1.0,27.451,11111222 
WAVCIS,ioos:station:WAVCIS:CSI16:2,2010-10-02T23:00:00Z,29.4012,-89.0355,1.0,27.455,11111222 
WAVCIS,ioos:station:WAVCIS:CSI16:2,2010-10-02T23:15:00Z,29.4012,-89.0355,1.0,27.483,11111222 
WAVCIS,ioos:station:WAVCIS:CSI16:2,2010-10-02T23:30:00Z,29.4012,-89.0355,1.0,27.49,11111222 
WAVCIS,ioos:station:WAVCIS:CSI16:2,2010-10-02T23:45:00Z,29.4012,-89.0355,1.0,27.515,11111222 
WAVCIS,ioos:station:WAVCIS:CSI16:2,2010-10-03T00:00:00Z,29.4012,-89.0355,1.0,27.528,11111222 
WAVCIS,ioos:station:WAVCIS:CSI16:2,2010-10-03T00:15:00Z,29.4012,-89.0355,1.0,27.542,11111222 
WAVCIS,ioos:station:WAVCIS:CSI16:2,2010-10-03T00:30:00Z,29.4012,-89.0355,1.0,27.533,11111222 
WAVCIS,ioos:station:WAVCIS:CSI16:2,2010-10-03T00:45:00Z,29.4012,-89.0355,1.0,27.53,11111222 
WAVCIS,ioos:station:WAVCIS:CSI16:2,2010-10-03T01:00:00Z,29.4012,-89.0355,1.0,27.533,11111222 
WAVCIS,ioos:station:WAVCIS:CSI16:2,2010-10-03T01:15:00Z,29.4012,-89.0355,1.0,27.521,11111222 
WAVCIS,ioos:station:WAVCIS:CSI16:2,2010-10-03T01:30:00Z,29.4012,-89.0355,1.0,27.546,11111222 
WAVCIS,ioos:station:WAVCIS:CSI16:2,2010-10-03T01:45:00Z,29.4012,-89.0355,1.0,27.555,11111222 
WAVCIS,ioos:station:WAVCIS:CSI16:2,2010-10-03T02:00:00Z,29.4012,-89.0355,1.0,27.521,11111222 
WAVCIS,ioos:station:WAVCIS:CSI16:2,2010-10-03T02:15:00Z,29.4012,-89.0355,1.0,27.507,11111222 
WAVCIS,ioos:station:WAVCIS:CSI16:2,2010-10-03T02:30:00Z,29.4012,-89.0355,1.0,27.514,11111222 
WAVCIS,ioos:station:WAVCIS:CSI16:2,2010-10-03T02:45:00Z,29.4012,-89.0355,1.0,27.517,11111222 
WAVCIS,ioos:station:WAVCIS:CSI16:2,2010-10-03T03:00:00Z,29.4012,-89.0355,1.0,27.601,11111222 
WAVCIS,ioos:station:WAVCIS:CSI16:2,2010-10-03T03:15:00Z,29.4012,-89.0355,1.0,27.63,11111222 
WAVCIS,ioos:station:WAVCIS:CSI16:2,2010-10-03T03:30:00Z,29.4012,-89.0355,1.0,27.702,11111222 
WAVCIS,ioos:station:WAVCIS:CSI16:2,2010-10-03T03:45:00Z,29.4012,-89.0355,1.0,27.724,11111222 
WAVCIS,ioos:station:WAVCIS:CSI16:2,2010-10-03T04:00:00Z,29.4012,-89.0355,1.0,27.807,11111222 
WAVCIS,ioos:station:WAVCIS:CSI16:2,2010-10-03T04:15:00Z,29.4012,-89.0355,1.0,27.927,11111222 
WAVCIS,ioos:station:WAVCIS:CSI16:2,2010-10-03T04:30:00Z,29.4012,-89.0355,1.0,28.004,11111222 
WAVCIS,ioos:station:WAVCIS:CSI16:2,2010-10-03T04:45:00Z,29.4012,-89.0355,1.0,28.035,11111222 
WAVCIS,ioos:station:WAVCIS:CSI16:2,2010-10-03T05:00:00Z,29.4012,-89.0355,1.0,28.039,11111222 
WAVCIS,ioos:station:WAVCIS:CSI16:2,2010-10-03T05:15:00Z,29.4012,-89.0355,1.0,28.14,11111222 
WAVCIS,ioos:station:WAVCIS:CSI16:2,2010-10-03T05:30:00Z,29.4012,-89.0355,1.0,28.134,11111222 
WAVCIS,ioos:station:WAVCIS:CSI16:2,2010-10-03T05:45:00Z,29.4012,-89.0355,1.0,28.155,11111222 
WAVCIS,ioos:station:WAVCIS:CSI16:2,2010-10-03T06:00:00Z,29.4012,-89.0355,1.0,28.161,11111222 
WAVCIS,ioos:station:WAVCIS:CSI16:2,2010-10-03T06:15:00Z,29.4012,-89.0355,1.0,28.179,11111222 
WAVCIS,ioos:station:WAVCIS:CSI16:2,2010-10-03T06:30:00Z,29.4012,-89.0355,1.0,28.197,11111222 
WAVCIS,ioos:station:WAVCIS:CSI16:2,2010-10-03T06:45:00Z,29.4012,-89.0355,1.0,28.212,11111222 
WAVCIS,ioos:station:WAVCIS:CSI16:2,2010-10-03T07:00:00Z,29.4012,-89.0355,1.0,28.224,11111222 
WAVCIS,ioos:station:WAVCIS:CSI16:2,2010-10-03T07:15:00Z,29.4012,-89.0355,1.0,28.225,11111222 
WAVCIS,ioos:station:WAVCIS:CSI16:2,2010-10-03T07:30:00Z,29.4012,-89.0355,1.0,28.232,11111222 
WAVCIS,ioos:station:WAVCIS:CSI16:2,2010-10-03T07:45:00Z,29.4012,-89.0355,1.0,28.246,11111222 
WAVCIS,ioos:station:WAVCIS:CSI16:2,2010-10-03T08:00:00Z,29.4012,-89.0355,1.0,28.251,11111222 
WAVCIS,ioos:station:WAVCIS:CSI16:2,2010-10-03T08:15:00Z,29.4012,-89.0355,1.0,28.254,11111222 
WAVCIS,ioos:station:WAVCIS:CSI16:2,2010-10-03T08:30:00Z,29.4012,-89.0355,1.0,28.247,11111222 
WAVCIS,ioos:station:WAVCIS:CSI16:2,2010-10-03T08:45:00Z,29.4012,-89.0355,1.0,28.256,11111222 
WAVCIS,ioos:station:WAVCIS:CSI16:2,2010-10-03T09:00:00Z,29.4012,-89.0355,1.0,28.254,11111222 
WAVCIS,ioos:station:WAVCIS:CSI16:2,2010-10-03T09:15:00Z,29.4012,-89.0355,1.0,28.255,11111222 
WAVCIS,ioos:station:WAVCIS:CSI16:2,2010-10-03T09:30:00Z,29.4012,-89.0355,1.0,28.263,11111222 
WAVCIS,ioos:station:WAVCIS:CSI16:2,2010-10-03T09:45:00Z,29.4012,-89.0355,1.0,28.254,11111222 
WAVCIS,ioos:station:WAVCIS:CSI16:2,2010-10-03T10:00:00Z,29.4012,-89.0355,1.0,28.272,11111222 
WAVCIS,ioos:station:WAVCIS:CSI16:2,2010-10-03T10:15:00Z,29.4012,-89.0355,1.0,28.269,11111222 
WAVCIS,ioos:station:WAVCIS:CSI16:2,2010-10-03T10:30:00Z,29.4012,-89.0355,1.0,28.277,11111222 
WAVCIS,ioos:station:WAVCIS:CSI16:2,2010-10-03T10:45:00Z,29.4012,-89.0355,1.0,28.274,11111222 
WAVCIS,ioos:station:WAVCIS:CSI16:2,2010-10-03T11:00:00Z,29.4012,-89.0355,1.0,28.271,11111222 
WAVCIS,ioos:station:WAVCIS:CSI16:2,2010-10-03T11:15:00Z,29.4012,-89.0355,1.0,28.267,11111222 
WAVCIS,ioos:station:WAVCIS:CSI16:2,2010-10-03T11:30:00Z,29.4012,-89.0355,1.0,28.265,11111222 
WAVCIS,ioos:station:WAVCIS:CSI16:2,2010-10-03T11:45:00Z,29.4012,-89.0355,1.0,28.258,11111222 
WAVCIS,ioos:station:WAVCIS:CSI16:2,2010-10-03T12:00:00Z,29.4012,-89.0355,1.0,28.252,11111222 
WAVCIS,ioos:station:WAVCIS:CSI16:2,2010-10-03T12:15:00Z,29.4012,-89.0355,1.0,28.241,11111222 
WAVCIS,ioos:station:WAVCIS:CSI16:2,2010-10-03T12:30:00Z,29.4012,-89.0355,1.0,28.2,11111222 
WAVCIS,ioos:station:WAVCIS:CSI16:2,2010-10-03T12:45:00Z,29.4012,-89.0355,1.0,28.175,11111222 
WAVCIS,ioos:station:WAVCIS:CSI16:2,2010-10-03T13:00:00Z,29.4012,-89.0355,1.0,28.162,11111222 
WAVCIS,ioos:station:WAVCIS:CSI16:2,2010-10-03T13:15:00Z,29.4012,-89.0355,1.0,28.149,11111222 
WAVCIS,ioos:station:WAVCIS:CSI16:2,2010-10-03T13:30:00Z,29.4012,-89.0355,1.0,28.141,11111222 
WAVCIS,ioos:station:WAVCIS:CSI16:2,2010-10-03T13:45:00Z,29.4012,-89.0355,1.0,28.1,11111222 
WAVCIS,ioos:station:WAVCIS:CSI16:2,2010-10-03T14:00:00Z,29.4012,-89.0355,1.0,28.106,11111222 
WAVCIS,ioos:station:WAVCIS:CSI16:2,2010-10-03T14:15:00Z,29.4012,-89.0355,1.0,28.033,11111222 
WAVCIS,ioos:station:WAVCIS:CSI16:2,2010-10-03T14:30:00Z,29.4012,-89.0355,1.0,27.93,11111222 
WAVCIS,ioos:station:WAVCIS:CSI16:2,2010-10-03T14:45:00Z,29.4012,-89.0355,1.0,27.853,11111222 
WAVCIS,ioos:station:WAVCIS:CSI16:2,2010-10-03T15:00:00Z,29.4012,-89.0355,1.0,27.765,11111222 
WAVCIS,ioos:station:WAVCIS:CSI16:2,2010-10-03T15:15:00Z,29.4012,-89.0355,1.0,27.593,11111222 